Weather History for Milwaukee, WI

Change the Weather History Date:

Monday, September 10, 2012

  Actual Average Record
Temperature  
Mean Temperature 65 °F 66 °F  
Max Temperature 75 °F 74 °F 97 °F (1931)
Min Temperature 55 °F 57 °F 39 °F (1883)
Degree Days  
Heating Degree Days 0 3  
Month to date heating degree days 8 17  
Since 1 July heating degree days 8 43  
Cooling Degree Days 0 3  
Month to date cooling degree days 53 38  
Year to date cooling degree days 1024 603  
Growing Degree Days 14 (Base 50)    
Moisture  
Dew Point 50 °F    
Average Humidity 57    
Maximum Humidity 72    
Minimum Humidity 41    
Precipitation  
Precipitation 0.00 in 0.10 in 1.74 in (1986)
Month to date precipitation 1.38 1.03  
Year to date precipitation 21.23 25.21  
Snow  
Snow 0.00 in 0.00 in 0.00 in ()
Month to date snowfall 0.0 0.0  
Since 1 July snowfall 0.0 0.0  
Since 1 September snowfall 0.0 0.0  
Snow Depth 0.00 in    
Sea Level Pressure  
Sea Level Pressure 30.15 in    
Wind  
Wind Speed 8 mph (SSW)    
Max Wind Speed 20 mph    
Max Gust Speed 23 mph    
Visibility 10 miles    
Events      
T = Trace of Precipitation, MM = Missing Value Source: NWS Daily Summary

Daily Weather History Graph

Daily Weather History Graph

Search for Another Location

Airport:

Trip Planner

Search our weather history database for the weather conditions in past years. The results will help you decide how hot, cold, wet, or windy it might be!

Date:

Astronomy

Sep. 10, 2012 Rise Set
Actual Time 6:26 AM CDT 7:09 PM CDT
Civil Twilight 5:57 AM CDT 7:38 PM CDT
Nautical Twilight 5:23 AM CDT 8:12 PM CDT
Astronomical Twilight 4:48 AM CDT 8:47 PM CDT
Moon 12:40 AM CDT (9/10) 3:45 PM CDT (9/10)
Length of Visible Light 13h 40m
Length of Day
12h 43m
Waning Crescent, 30% of the Moon is Illuminated
Sep 10
Waning Crescent
Sep 15
New
Sep 22
First Quarter
Sep 29
Full
Oct 8
Last Quarter

Hourly Weather History & Observations

Time (CDT) Temp. Dew Point Humidity Pressure Visibility Wind Dir Wind Speed Gust Speed Precip Events Conditions
12:52 AM 57.0 °F 48.9 °F 74% 30.16 in 10.0 mi Calm Calm - N/A   Clear
1:52 AM 57.0 °F 48.0 °F 72% 30.16 in 10.0 mi Calm Calm - N/A   Clear
2:52 AM 57.0 °F 46.9 °F 69% 30.16 in 10.0 mi Calm Calm - N/A   Clear
3:52 AM 57.9 °F 46.9 °F 67% 30.16 in 10.0 mi West 4.6 mph - N/A   Clear
4:52 AM 57.9 °F 46.9 °F 67% 30.18 in 10.0 mi West 5.8 mph - N/A   Clear
5:52 AM 57.0 °F 46.9 °F 69% 30.19 in 10.0 mi West 3.5 mph - N/A   Partly Cloudy
6:52 AM 57.0 °F 46.9 °F 69% 30.21 in 10.0 mi West 3.5 mph - N/A   Partly Cloudy
7:52 AM 60.1 °F 46.9 °F 62% 30.21 in 10.0 mi West 3.5 mph - N/A   Partly Cloudy
8:52 AM 64.0 °F 48.0 °F 56% 30.22 in 8.0 mi Variable 3.5 mph - N/A   Partly Cloudy
9:52 AM 68.0 °F 50.0 °F 52% 30.21 in 10.0 mi SW 8.1 mph - N/A   Scattered Clouds
10:52 AM 70.0 °F 50.0 °F 49% 30.20 in 10.0 mi SSW 5.8 mph - N/A   Scattered Clouds
11:52 AM 71.1 °F 48.9 °F 45% 30.20 in 10.0 mi SSW 10.4 mph 17.3 mph N/A   Scattered Clouds
12:52 PM 73.0 °F 48.9 °F 42% 30.18 in 10.0 mi SSW 15.0 mph 19.6 mph N/A   Scattered Clouds
1:52 PM 73.4 °F 48.2 °F 41% 30.16 in 10.0 mi SSW 9.2 mph 19.6 mph N/A   Scattered Clouds
2:52 PM 73.9 °F 50.0 °F 43% 30.13 in 10.0 mi SSW 10.4 mph 18.4 mph N/A   Scattered Clouds
3:52 PM 73.0 °F 54.0 °F 51% 30.11 in 10.0 mi SSE 16.1 mph - N/A   Scattered Clouds
4:52 PM 72.0 °F 52.0 °F 49% 30.10 in 10.0 mi SSE 15.0 mph - N/A   Scattered Clouds
5:52 PM 71.1 °F 52.0 °F 51% 30.09 in 10.0 mi SSE 15.0 mph - N/A   Scattered Clouds
6:52 PM 68.0 °F 53.1 °F 59% 30.09 in 10.0 mi South 8.1 mph - N/A   Scattered Clouds
7:52 PM 66.0 °F 53.1 °F 63% 30.08 in 10.0 mi South 8.1 mph - N/A   Partly Cloudy
8:52 PM 64.0 °F 54.0 °F 70% 30.08 in 10.0 mi South 8.1 mph - N/A   Partly Cloudy
9:52 PM 64.0 °F 54.0 °F 70% 30.08 in 10.0 mi South 6.9 mph - N/A   Clear
10:52 PM 63.0 °F 54.0 °F 72% 30.08 in 10.0 mi South 9.2 mph - N/A   Partly Cloudy
11:52 PM 62.1 °F 54.0 °F 75% 30.09 in 10.0 mi SSW 8.1 mph - N/A   Partly Cloudy